Regional Weather Roundup
Issued by NWS

Home | Current Version | Previous Version | Text Only | Print | Product List | Glossary Off
Versions: 1 2 3 4 5 6 7 8 9 10 11 12 13 14 15 16 17 18 19 20 21 22 23 24 25 26 27 28 29 30 31 32 33 34 35 36 37 38 39 40 41 42 43 44 45 46 47 48 49 50

000
ASUS43 KLOT 141006
RWRIL

ILLINOIS REGIONAL WEATHER ROUNDUP
NATIONAL WEATHER SERVICE CHICAGO/ROMEOVILLE IL
500 AM CDT MON JUL 14 2014

NOTE: "FAIR" INDICATES FEW OR NO CLOUDS BELOW 12,000 FEET WITH NO
SIGNIFICANT WEATHER AND/OR OBSTRUCTIONS TO VISIBILITY.

* THESE STATIONS ARE NOT UNDER NWS QUALITY CONTROL. THEY ALSO MAY NOT
  REPORT WEATHER SUCH AS PRECIPITATION OR FOG.

ILZ001-002-007-009-015-016-024-141100-
NORTHWEST ILLINOIS

CITY           SKY/WX    TMP DP  RH WIND       PRES   REMARKS
MOLINE         CLOUDY    67  64  90 CALM      29.87F
STERLING*      MOCLDY    64  63  94 CALM      29.87F
SAVANNA*       MOCLDY    64  61  89 N6        29.88R
$$

ILZ003-004-008-010-011-017-018-141100-
NORTH CENTRAL ILLINOIS

CITY           SKY/WX    TMP DP  RH WIND       PRES   REMARKS
ROCKFORD       CLOUDY    63  56  78 CALM      29.88F
FREEPORT*      RAIN      58  56  94 W5        29.92R
ROCHELLE*      MOCLDY    60  59  96 CALM      29.88F FOG
DE KALB*       DRIZZLE   62  57  84 CALM      29.88F
PERU*          FOG       64  63  95 S5        29.88F VSB 1/4
$$

ILZ005-006-012>014-019>023-141100-
NORTHEAST ILLINOIS

CITY           SKY/WX    TMP DP  RH WIND       PRES   REMARKS
CHICAGO-OHARE  PTCLDY    63  55  75 W5        29.87F
CHICAGO-MIDWAY PTCLDY    68  56  65 CALM      29.87F
AURORA         CLEAR     59  56  89 NW3       29.88F
LANSING*       CLEAR     62  58  89 CALM      29.88S
JOLIET*        CLEAR     60  59  96 CALM      29.89S FOG
WAUKEGAN       PTCLDY    59  57  93 CALM      29.87S
DUPAGE AIRPORT MOCLDY    62  56  80 CALM      29.87F
KANKAKEE*      FOG       63  62  98 CALM      29.89S VSB 1/2
WHEELING       PTCLDY    64  55  72 CALM      29.88F
MORRIS*        CLEAR     63  63 100 CALM      29.88S
ROMEOVILLE*    CLEAR     62  60  93 CALM      29.88S
NORTHERLY ISL    N/A     66  55  67 CALM        N/A
$$

LMZ740>746-141100-
SOUTHERN LAKE MICHIGAN

STATION/POSITION SKY/WX   TEMP    WIND        PRES    VSBY  WAVE
                          AIR SEA DIR/SP/G                  HT/PER
                          (F)     (DEG/KT/KT) (MB)    (MI)  (FT/S)
SOUTHERN BUOY              65 64  210/  2/  4 1011.2F         0
WAUKEGAN HARBOR            65     280/  3/  4 1012.9S
HARRISON CRIB              69     260/  2/  3   N/A
BURNHAM HARBOR             67      CALM  /  1   N/A
CALUMET HARBOR             67      CALM  /  2 1012.5R
MICHIGAN CITY              69      70/  1/  2   N/A
$$

ILZ025>027-034>036-040-047-049-050-058-095>099-141100-
WEST-CENTRAL ILLINOIS

CITY           SKY/WX    TMP DP  RH WIND       PRES   REMARKS
QUINCY         CLEAR     69  67  93 SW5       29.91F
GALESBURG*     PTCLDY    63  63  99 CALM      29.90S
MACOMB*        MOCLDY    65  65 100 SW5       29.92S
JACKSONVILLE*  FOG       69  68  98 CALM      29.92S VSB 1/2
PITTSFIELD*    PTCLDY    71  69  92 CALM      29.93S
$$

ILZ028>032-037-038-041>044-048-051>054-059>061-141100-
CENTRAL ILLINOIS

CITY           SKY/WX    TMP DP  RH WIND       PRES   REMARKS
PONTIAC        PTCLDY    64  63  94 CALM      29.89S FOG
BLOOMINGTON    CLEAR     65  63  93 SW3       29.92R
DECATUR        MOCLDY    67  65  93 S5        29.91R
PEORIA         CLEAR     68  64  87 CALM      29.90S
LACON*         PTCLDY    63  61  95 SE3       29.88S
LINCOLN*       PTCLDY    66  64  95 CALM      29.88S
SPRINGFIELD    PTCLDY    68  66  93 CALM      29.91S FOG
TAYLORVILLE    FOG       64  64 100 CALM      29.91R VSB 1/4
$$

ILZ033-039-045-046-055>057-062-063-141100-
EAST-CENTRAL ILLINOIS

CITY           SKY/WX    TMP DP  RH WIND       PRES   REMARKS
CHAMPAIGN      MOCLDY    68  66  93 N5        29.91R
RANTOUL*       MOCLDY    67  62  85 CALM      29.91S
MATTOON        CLOUDY    69  68  96 CALM      29.90S
PARIS*         CLOUDY    67  67  99 CALM      29.91R FOG
$$

ILZ079-100>102-141100-
SOUTHWEST ILLINOIS

CITY           SKY/WX    TMP DP  RH WIND       PRES   REMARKS
ALTON          CLOUDY    71  71 100 W3        29.92S FOG
BELLEVILLE     CLOUDY    73  73 100 W2        29.91S
CAHOKIA*       CLOUDY    74  72  93 SW3       29.92S
SPARTA*        CLOUDY    70  68  94 CALM      29.93S
$$

ILZ064>066-069>071-074>076-080>082-084>086-088>090-092>094-141100-
SOUTH-CENTRAL ILLINOIS

CITY           SKY/WX    TMP DP  RH WIND       PRES   REMARKS
CARBONDALE     CLOUDY    71  69  93 SW3       29.91F
CAIRO*         CLOUDY    75  70  84 NW7       29.96R
MARION         CLOUDY    72  70  94 CALM      29.92F
MT. VERNON     CLOUDY    72  66  83 CALM      29.93S
CENTRALIA*     CLOUDY    70  68  93 CALM      29.92S
SALEM*         CLOUDY    74  72  95 CALM      29.92F
METROPOLIS*    MOCLDY    73  70  92 S3        29.91F
$$

ILZ067-068-072-073-078-083-087-091-141100-
SOUTHEAST ILLINOIS

CITY           SKY/WX    TMP DP  RH WIND       PRES   REMARKS
FLORA*         RAIN      72  71  96 SW6       29.92F
HARRISBURG*    HVY RAIN  71  71 100 S5        29.93F
ROBINSON*      RAIN      72  71  97 S7        29.90F
CARMI*         LGT RAIN  72  71  98 CALM      29.92S
$$

ABBREVIATIONS USED IN REMARKS
   TC - TEMPERATURE IN CELSIUS
  WCI - WIND CHILL INDEX
   HX - HEAT INDEX
  VSB - VISIBILITY
$$



USA.gov is the U.S. government's official web portal to all federal, state and local government web resources and services.